Location: Newark
(46.1292°N, 1.0086°W)
Time: 06:23:32
(UTC+00:00)

Vanguard 3 - Pass Details

Date: 24 November 2019
Orbit: 508 x 3263 km, 33.3° (Epoch: 14 December)

Event Time Altitude Azimuth Distance (km) Brightness Sun altitude
Rises 12:39:47 0° 234° (SW) 6,336 12.4 22.4°
Reaches altitude 10° 12:43:47 10° 229° (SW) 5,598 12.4 22.2°
Maximum altitude 13:00:51 49° 163° (SSE) 3,872 11.5 21.4°
Drops below altitude 10° 13:18:28 10° 96° (E) 5,782 11.4 20.4°
Sets 13:22:40 0° 92° (E) 6,551 11.6 20.1°
